Year,Month,Day,Hour,Minute,Value (Times are PST for temperature in C)
2009,05,25,00,00,11.70
2009,05,25,00,01,11.70
2009,05,25,00,02,11.70
2009,05,25,00,03,11.70
2009,05,25,00,04,11.70
2009,05,25,00,05,11.70
2009,05,25,00,06,11.60
2009,05,25,00,07,11.60
2009,05,25,00,08,11.60
2009,05,25,00,09,11.60
2009,05,25,00,10,11.60
2009,05,25,00,11,11.60
2009,05,25,00,12,11.60
2009,05,25,00,13,11.60
2009,05,25,00,14,11.60
2009,05,25,00,15,11.50
2009,05,25,00,16,11.50
2009,05,25,00,17,11.50
2009,05,25,00,18,11.50
2009,05,25,00,19,11.50
2009,05,25,00,20,11.40
2009,05,25,00,21,11.40
2009,05,25,00,22,11.40
2009,05,25,00,23,11.40
2009,05,25,00,24,11.40
2009,05,25,00,25,11.40
2009,05,25,00,26,11.30
2009,05,25,00,27,11.30
2009,05,25,00,28,11.30
2009,05,25,00,29,11.30
2009,05,25,00,30,11.30
2009,05,25,00,31,11.30
2009,05,25,00,32,11.30
2009,05,25,00,33,11.30
2009,05,25,00,34,11.20
2009,05,25,00,35,11.20
2009,05,25,00,36,11.20
2009,05,25,00,37,11.20
2009,05,25,00,38,11.20
2009,05,25,00,39,11.10
2009,05,25,00,40,11.10
2009,05,25,00,41,11.10
2009,05,25,00,42,11.10
2009,05,25,00,43,11.10
2009,05,25,00,44,11.10
2009,05,25,00,45,11.10
2009,05,25,00,46,11.00
2009,05,25,00,47,11.00
2009,05,25,00,48,11.00
2009,05,25,00,49,11.00
2009,05,25,00,50,10.90
2009,05,25,00,51,10.90
2009,05,25,00,52,10.90
2009,05,25,00,53,10.90
2009,05,25,00,54,10.90
2009,05,25,00,55,10.90
2009,05,25,00,56,10.90
2009,05,25,00,57,10.80
2009,05,25,00,58,10.80
2009,05,25,00,59,10.80
2009,05,25,01,00,10.80
2009,05,25,01,01,10.80
2009,05,25,01,02,10.80
2009,05,25,01,03,10.80
2009,05,25,01,04,10.80
2009,05,25,01,05,10.80
2009,05,25,01,06,10.80
2009,05,25,01,07,10.70
2009,05,25,01,08,10.70
2009,05,25,01,09,10.70
2009,05,25,01,10,10.60
2009,05,25,01,11,10.60
2009,05,25,01,12,10.60
2009,05,25,01,13,10.60
2009,05,25,01,14,10.60
2009,05,25,01,15,10.50
2009,05,25,01,16,10.50
2009,05,25,01,17,10.40
2009,05,25,01,18,10.40
2009,05,25,01,19,10.40
2009,05,25,01,20,10.40
2009,05,25,01,21,10.40
2009,05,25,01,22,10.30
2009,05,25,01,23,10.30
2009,05,25,01,24,10.30
2009,05,25,01,25,10.30
2009,05,25,01,26,10.30
2009,05,25,01,27,10.30
2009,05,25,01,28,10.30
2009,05,25,01,29,10.30
2009,05,25,01,30,10.30
2009,05,25,01,31,10.30
2009,05,25,01,32,10.30
2009,05,25,01,33,10.30
2009,05,25,01,34,10.30
2009,05,25,01,35,10.30
2009,05,25,01,36,10.30
2009,05,25,01,37,10.30
2009,05,25,01,38,10.30
2009,05,25,01,39,10.30
2009,05,25,01,40,10.30
2009,05,25,01,41,10.30
2009,05,25,01,42,10.30
2009,05,25,01,43,10.30
2009,05,25,01,44,10.20
2009,05,25,01,45,10.20
2009,05,25,01,46,10.20
2009,05,25,01,47,10.20
2009,05,25,01,48,10.20
2009,05,25,01,49,10.20
2009,05,25,01,50,10.10
2009,05,25,01,51,10.10
2009,05,25,01,52,10.10
2009,05,25,01,53,10.10
2009,05,25,01,54,10.00
2009,05,25,01,55,10.00
2009,05,25,01,56,10.00
2009,05,25,01,57,10.00
2009,05,25,01,58,9.90
2009,05,25,01,59,9.90
2009,05,25,02,00,9.90
2009,05,25,02,01,9.90
2009,05,25,02,02,9.90
2009,05,25,02,03,9.80
2009,05,25,02,04,9.80
2009,05,25,02,05,9.80
2009,05,25,02,06,9.80
2009,05,25,02,07,9.80
2009,05,25,02,08,9.80
2009,05,25,02,09,9.80
2009,05,25,02,10,9.80
2009,05,25,02,11,9.80
2009,05,25,02,12,9.80
2009,05,25,02,13,9.80
2009,05,25,02,14,9.70
2009,05,25,02,15,9.70
2009,05,25,02,16,9.70
2009,05,25,02,17,9.70
2009,05,25,02,18,9.70
2009,05,25,02,19,9.70
2009,05,25,02,20,9.70
2009,05,25,02,21,9.70
2009,05,25,02,22,9.70
2009,05,25,02,23,9.60
2009,05,25,02,24,9.60
2009,05,25,02,25,9.60
2009,05,25,02,26,9.60
2009,05,25,02,27,9.60
2009,05,25,02,28,9.60
2009,05,25,02,29,9.60
2009,05,25,02,30,9.60
2009,05,25,02,31,9.60
2009,05,25,02,32,9.50
2009,05,25,02,33,9.50
2009,05,25,02,34,9.50
2009,05,25,02,35,9.40
2009,05,25,02,36,9.40
2009,05,25,02,37,9.40
2009,05,25,02,38,9.40
2009,05,25,02,39,9.40
2009,05,25,02,40,9.40
2009,05,25,02,41,9.40
2009,05,25,02,42,9.40
2009,05,25,02,43,9.40
2009,05,25,02,44,9.40
2009,05,25,02,45,9.40
2009,05,25,02,46,9.40
2009,05,25,02,47,9.40
2009,05,25,02,48,9.40
2009,05,25,02,49,9.40
2009,05,25,02,50,9.30
2009,05,25,02,51,9.40
2009,05,25,02,52,9.30
2009,05,25,02,53,9.30
2009,05,25,02,54,9.30
2009,05,25,02,55,9.30
2009,05,25,02,56,9.30
2009,05,25,02,57,9.30
2009,05,25,02,58,9.20
2009,05,25,02,59,9.20
2009,05,25,03,00,9.20
2009,05,25,03,01,9.20
2009,05,25,03,02,9.20
2009,05,25,03,03,9.20
2009,05,25,03,04,9.20
2009,05,25,03,05,9.20
2009,05,25,03,06,9.20
2009,05,25,03,07,9.10
2009,05,25,03,08,9.10
2009,05,25,03,09,9.10
2009,05,25,03,10,9.10
2009,05,25,03,11,9.10
2009,05,25,03,12,9.10
2009,05,25,03,13,9.10
2009,05,25,03,14,9.10
2009,05,25,03,15,9.10
2009,05,25,03,16,9.00
2009,05,25,03,17,9.00
2009,05,25,03,18,9.00
2009,05,25,03,19,9.00
2009,05,25,03,20,9.00
2009,05,25,03,21,9.00
2009,05,25,03,22,8.90
2009,05,25,03,23,8.90
2009,05,25,03,24,8.90
2009,05,25,03,25,8.90
2009,05,25,03,26,8.90
2009,05,25,03,27,8.90
2009,05,25,03,28,8.90
2009,05,25,03,29,8.90
2009,05,25,03,30,8.90
2009,05,25,03,31,8.80
2009,05,25,03,32,8.80
2009,05,25,03,33,8.80
2009,05,25,03,34,8.80
2009,05,25,03,35,8.80
2009,05,25,03,36,8.80
2009,05,25,03,37,8.80
2009,05,25,03,38,8.70
2009,05,25,03,39,8.70
2009,05,25,03,40,8.70
2009,05,25,03,41,8.70
2009,05,25,03,42,8.70
2009,05,25,03,43,8.70
2009,05,25,03,44,8.70
2009,05,25,03,45,8.70
2009,05,25,03,46,8.70
2009,05,25,03,47,8.70
2009,05,25,03,48,8.70
2009,05,25,03,49,8.70
2009,05,25,03,50,8.60
2009,05,25,03,51,8.60
2009,05,25,03,52,8.60
2009,05,25,03,53,8.60
2009,05,25,03,54,8.50
2009,05,25,03,55,8.50
2009,05,25,03,56,8.50
2009,05,25,03,57,8.50
2009,05,25,03,58,8.50
2009,05,25,03,59,8.50
2009,05,25,04,00,8.50
2009,05,25,04,01,8.50
2009,05,25,04,02,8.50
2009,05,25,04,03,8.60
2009,05,25,04,04,8.60
2009,05,25,04,05,8.60
2009,05,25,04,06,8.60
2009,05,25,04,07,8.60
2009,05,25,04,08,8.60
2009,05,25,04,09,8.60
2009,05,25,04,10,8.50
2009,05,25,04,11,8.50
2009,05,25,04,12,8.50
2009,05,25,04,13,8.40
2009,05,25,04,14,8.40
2009,05,25,04,15,8.40
2009,05,25,04,16,8.30
2009,05,25,04,17,8.30
2009,05,25,04,18,8.30
2009,05,25,04,19,8.30
2009,05,25,04,20,8.30
2009,05,25,04,21,8.30
2009,05,25,04,22,8.30
2009,05,25,04,23,8.30
2009,05,25,04,24,8.30
2009,05,25,04,25,8.30
2009,05,25,04,26,8.30
2009,05,25,04,27,8.30
2009,05,25,04,28,8.30
2009,05,25,04,29,8.30
2009,05,25,04,30,8.30
2009,05,25,04,31,8.30
2009,05,25,04,32,8.30
2009,05,25,04,33,8.30
2009,05,25,04,34,8.30
2009,05,25,04,35,8.30
2009,05,25,04,36,8.30
2009,05,25,04,37,8.30
2009,05,25,04,38,8.30
2009,05,25,04,39,8.30
2009,05,25,04,40,8.30
2009,05,25,04,41,8.30
2009,05,25,04,42,8.30
2009,05,25,04,43,8.30
2009,05,25,04,44,8.30
2009,05,25,04,45,8.30
2009,05,25,04,46,8.30
2009,05,25,04,47,8.30
2009,05,25,04,48,8.30
2009,05,25,04,49,8.30
2009,05,25,04,50,8.30
2009,05,25,04,51,8.20
2009,05,25,04,52,8.20
2009,05,25,04,53,8.20
2009,05,25,04,54,8.10
2009,05,25,04,55,8.10
2009,05,25,04,56,8.10
2009,05,25,04,57,8.00
2009,05,25,04,58,8.00
2009,05,25,04,59,7.90
2009,05,25,05,00,7.90
2009,05,25,05,01,7.80
2009,05,25,05,02,7.80
2009,05,25,05,03,7.80
2009,05,25,05,04,7.70
2009,05,25,05,05,7.70
2009,05,25,05,06,7.70
2009,05,25,05,07,7.70
2009,05,25,05,08,7.70
2009,05,25,05,09,7.70
2009,05,25,05,10,7.60
2009,05,25,05,11,7.60
2009,05,25,05,12,7.60
2009,05,25,05,13,7.60
2009,05,25,05,14,7.60
2009,05,25,05,15,7.60
2009,05,25,05,16,7.60
2009,05,25,05,17,7.60
2009,05,25,05,18,7.60
2009,05,25,05,19,7.70
2009,05,25,05,20,7.70
2009,05,25,05,21,7.70
2009,05,25,05,22,7.80
2009,05,25,05,23,7.80
2009,05,25,05,24,7.80
2009,05,25,05,25,7.80
2009,05,25,05,26,7.80
2009,05,25,05,27,7.80
2009,05,25,05,28,7.90
2009,05,25,05,29,7.90
2009,05,25,05,30,7.90
2009,05,25,05,31,7.90
2009,05,25,05,32,7.90
2009,05,25,05,33,7.90
2009,05,25,05,34,7.90
2009,05,25,05,35,7.90
2009,05,25,05,36,7.90
2009,05,25,05,37,7.90
2009,05,25,05,38,7.80
2009,05,25,05,39,7.80
2009,05,25,05,40,7.80
2009,05,25,05,41,7.80
2009,05,25,05,42,7.80
2009,05,25,05,43,7.80
2009,05,25,05,44,7.80
2009,05,25,05,45,7.80
2009,05,25,05,46,7.80
2009,05,25,05,47,7.80
2009,05,25,05,48,7.80
2009,05,25,05,49,7.80
2009,05,25,05,50,7.80
2009,05,25,05,51,7.80
2009,05,25,05,52,7.80
2009,05,25,05,53,7.80
2009,05,25,05,54,7.80
2009,05,25,05,55,7.80
2009,05,25,05,56,7.80
2009,05,25,05,57,7.80
2009,05,25,05,58,7.80
2009,05,25,05,59,7.80
2009,05,25,06,00,7.80
2009,05,25,06,01,7.80
2009,05,25,06,02,7.80
2009,05,25,06,03,7.80
2009,05,25,06,04,7.80
2009,05,25,06,05,7.80
2009,05,25,06,06,7.80
2009,05,25,06,07,7.80
2009,05,25,06,08,7.80
2009,05,25,06,09,7.80
2009,05,25,06,10,7.80
2009,05,25,06,11,7.80
2009,05,25,06,12,7.80
2009,05,25,06,13,7.80
2009,05,25,06,14,7.80
2009,05,25,06,15,7.90
2009,05,25,06,16,7.90
2009,05,25,06,17,7.80
2009,05,25,06,18,7.80
2009,05,25,06,19,7.80
2009,05,25,06,20,7.80
2009,05,25,06,21,7.80
2009,05,25,06,22,7.80
2009,05,25,06,23,7.80
2009,05,25,06,24,7.80
2009,05,25,06,25,7.80
2009,05,25,06,26,7.80
2009,05,25,06,27,7.80
2009,05,25,06,28,7.80
2009,05,25,06,29,7.80
2009,05,25,06,30,7.80
2009,05,25,06,31,7.80
2009,05,25,06,32,7.80
2009,05,25,06,33,7.80
2009,05,25,06,34,7.80
2009,05,25,06,35,7.80
2009,05,25,06,36,7.80
2009,05,25,06,37,7.80
2009,05,25,06,38,7.80
2009,05,25,06,39,7.80
2009,05,25,06,40,7.80
2009,05,25,06,41,7.80
2009,05,25,06,42,7.80
2009,05,25,06,43,7.80
2009,05,25,06,44,7.80
2009,05,25,06,45,7.80
2009,05,25,06,46,7.80
2009,05,25,06,47,7.80
2009,05,25,06,48,7.80
2009,05,25,06,49,7.70
2009,05,25,06,50,7.70
2009,05,25,06,51,7.70
2009,05,25,06,52,7.70
2009,05,25,06,53,7.70
2009,05,25,06,54,7.70
2009,05,25,06,55,7.70
2009,05,25,06,56,7.70
2009,05,25,06,57,7.70
2009,05,25,06,58,7.70
2009,05,25,06,59,7.70
2009,05,25,07,00,7.60
2009,05,25,07,01,7.60
2009,05,25,07,02,7.60
2009,05,25,07,03,7.60
2009,05,25,07,04,7.60
2009,05,25,07,05,7.60
2009,05,25,07,06,7.60
2009,05,25,07,07,7.60
2009,05,25,07,08,7.70
2009,05,25,07,09,7.60
2009,05,25,07,10,7.60
2009,05,25,07,11,7.70
2009,05,25,07,12,7.70
2009,05,25,07,13,7.70
2009,05,25,07,14,7.70
2009,05,25,07,15,7.70
2009,05,25,07,16,7.70
2009,05,25,07,17,7.70
2009,05,25,07,18,7.70
2009,05,25,07,19,7.70
2009,05,25,07,20,7.70
2009,05,25,07,21,7.70
2009,05,25,07,22,7.70
2009,05,25,07,23,7.70
2009,05,25,07,24,7.70
2009,05,25,07,25,7.70
2009,05,25,07,26,7.70
2009,05,25,07,27,7.80
2009,05,25,07,28,7.80
2009,05,25,07,29,7.80
2009,05,25,07,30,7.80
2009,05,25,07,31,7.80
2009,05,25,07,32,7.80
2009,05,25,07,33,7.80
2009,05,25,07,34,7.80
2009,05,25,07,35,7.80
2009,05,25,07,36,7.80
2009,05,25,07,37,7.80
2009,05,25,07,38,7.90
2009,05,25,07,39,7.90
2009,05,25,07,40,7.90
2009,05,25,07,41,7.90
2009,05,25,07,42,8.00
2009,05,25,07,43,8.00
2009,05,25,07,44,8.00
2009,05,25,07,45,8.10
2009,05,25,07,46,8.10
2009,05,25,07,47,8.10
2009,05,25,07,48,8.10
2009,05,25,07,49,8.20
2009,05,25,07,50,8.20
2009,05,25,07,51,8.20
2009,05,25,07,52,8.20
2009,05,25,07,53,8.30
2009,05,25,07,54,8.30
2009,05,25,07,55,8.30
2009,05,25,07,56,8.30
2009,05,25,07,57,8.40
2009,05,25,07,58,8.40
2009,05,25,07,59,8.40
2009,05,25,08,00,8.40
2009,05,25,08,01,8.40
2009,05,25,08,02,8.50
2009,05,25,08,03,8.50
2009,05,25,08,04,8.60
2009,05,25,08,05,8.60
2009,05,25,08,06,8.60
2009,05,25,08,07,8.60
2009,05,25,08,08,8.60
2009,05,25,08,09,8.70
2009,05,25,08,10,8.70
2009,05,25,08,11,8.70
2009,05,25,08,12,8.80
2009,05,25,08,13,8.80
2009,05,25,08,14,8.80
2009,05,25,08,15,8.80
2009,05,25,08,16,8.90
2009,05,25,08,17,8.90
2009,05,25,08,18,8.90
2009,05,25,08,19,9.00
2009,05,25,08,20,9.00
2009,05,25,08,21,9.10
2009,05,25,08,22,9.10
2009,05,25,08,23,9.10
2009,05,25,08,24,9.10
2009,05,25,08,25,9.20
2009,05,25,08,26,9.20
2009,05,25,08,27,9.20
2009,05,25,08,28,9.30
2009,05,25,08,29,9.30
2009,05,25,08,30,9.30
2009,05,25,08,31,9.30
2009,05,25,08,32,9.40
2009,05,25,08,33,9.40
2009,05,25,08,34,9.50
2009,05,25,08,35,9.50
2009,05,25,08,36,9.60
2009,05,25,08,37,9.60
2009,05,25,08,38,9.70
2009,05,25,08,39,9.70
2009,05,25,08,40,9.80
2009,05,25,08,41,9.80
2009,05,25,08,42,9.80
2009,05,25,08,43,9.90
2009,05,25,08,44,9.90
2009,05,25,08,45,10.00
2009,05,25,08,46,10.00
2009,05,25,08,47,10.10
2009,05,25,08,48,10.10
2009,05,25,08,49,10.20
2009,05,25,08,50,10.20
2009,05,25,08,51,10.30
2009,05,25,08,52,10.30
2009,05,25,08,53,10.30
2009,05,25,08,54,10.40
2009,05,25,08,55,10.40
2009,05,25,08,56,10.50
2009,05,25,08,57,10.60
2009,05,25,08,58,10.60
2009,05,25,08,59,10.70
2009,05,25,09,00,10.70
2009,05,25,09,01,10.80
2009,05,25,09,02,10.80
2009,05,25,09,03,10.90
2009,05,25,09,04,10.90
2009,05,25,09,05,11.00
2009,05,25,09,06,11.10
2009,05,25,09,07,11.10
2009,05,25,09,08,11.10
2009,05,25,09,09,11.20
2009,05,25,09,10,11.20
2009,05,25,09,11,11.30
2009,05,25,09,12,11.30
2009,05,25,09,13,11.40
2009,05,25,09,14,11.40
2009,05,25,09,15,11.50
2009,05,25,09,16,11.60
2009,05,25,09,17,11.60
2009,05,25,09,18,11.70
2009,05,25,09,19,11.70
2009,05,25,09,20,11.80
2009,05,25,09,21,11.80
2009,05,25,09,22,11.90
2009,05,25,09,23,12.00
2009,05,25,09,24,12.10
2009,05,25,09,25,12.10
2009,05,25,09,26,12.20
2009,05,25,09,27,12.30
2009,05,25,09,28,12.40
2009,05,25,09,29,12.40
2009,05,25,09,30,12.50
2009,05,25,09,31,12.50
2009,05,25,09,32,12.60
2009,05,25,09,33,12.60
2009,05,25,09,34,12.70
2009,05,25,09,35,12.70
2009,05,25,09,36,12.80
2009,05,25,09,37,12.80
2009,05,25,09,38,12.80
2009,05,25,09,39,12.90
2009,05,25,09,40,12.90
2009,05,25,09,41,13.00
2009,05,25,09,42,13.00
2009,05,25,09,43,13.10
2009,05,25,09,44,13.10
2009,05,25,09,45,13.10
2009,05,25,09,46,13.20
2009,05,25,09,47,13.20
2009,05,25,09,48,13.30
2009,05,25,09,49,13.30
2009,05,25,09,50,13.40
2009,05,25,09,51,13.40
2009,05,25,09,52,13.50
2009,05,25,09,53,13.50
2009,05,25,09,54,13.60
2009,05,25,09,55,13.60
2009,05,25,09,56,13.60
2009,05,25,09,57,13.70
2009,05,25,09,58,13.70
2009,05,25,09,59,13.80
2009,05,25,10,00,13.80
2009,05,25,10,01,13.90
2009,05,25,10,02,13.90
2009,05,25,10,03,14.00
2009,05,25,10,04,14.10
2009,05,25,10,05,14.20
2009,05,25,10,06,14.20
2009,05,25,10,07,14.30
2009,05,25,10,08,14.30
2009,05,25,10,09,14.40
2009,05,25,10,10,14.40
2009,05,25,10,11,14.40
2009,05,25,10,12,14.50
2009,05,25,10,13,14.50
2009,05,25,10,14,14.50
2009,05,25,10,15,14.60
2009,05,25,10,16,14.60
2009,05,25,10,17,14.60
2009,05,25,10,18,14.70
2009,05,25,10,19,14.70
2009,05,25,10,20,14.80
2009,05,25,10,21,14.80
2009,05,25,10,22,14.90
2009,05,25,10,23,15.00
2009,05,25,10,24,15.00
2009,05,25,10,25,15.00
2009,05,25,10,26,15.00
2009,05,25,10,27,15.00
2009,05,25,10,28,15.00
2009,05,25,10,29,15.00
2009,05,25,10,30,15.20
2009,05,25,10,31,15.30
2009,05,25,10,32,15.40
2009,05,25,10,33,15.40
2009,05,25,10,34,15.50
2009,05,25,10,35,15.60
2009,05,25,10,36,15.60
2009,05,25,10,37,15.70
2009,05,25,10,38,15.80
2009,05,25,10,39,15.80
2009,05,25,10,40,15.90
2009,05,25,10,41,16.00
2009,05,25,10,42,16.10
2009,05,25,10,43,16.20
2009,05,25,10,44,16.40
2009,05,25,10,45,16.50
2009,05,25,10,46,16.60
2009,05,25,10,47,16.70
2009,05,25,10,48,16.80
2009,05,25,10,49,16.90
2009,05,25,10,50,16.90
2009,05,25,10,51,17.00
2009,05,25,10,52,17.10
2009,05,25,10,53,17.20
2009,05,25,10,54,17.30
2009,05,25,10,55,17.40
2009,05,25,10,56,17.50
2009,05,25,10,57,17.70
2009,05,25,10,58,17.80
2009,05,25,10,59,17.90
2009,05,25,11,00,18.00
2009,05,25,11,01,18.00
2009,05,25,11,02,18.10
2009,05,25,11,03,18.20
2009,05,25,11,04,18.20
2009,05,25,11,05,18.30
2009,05,25,11,06,18.30
2009,05,25,11,07,18.40
2009,05,25,11,08,18.50
2009,05,25,11,09,18.60
2009,05,25,11,10,18.70
2009,05,25,11,11,18.70
2009,05,25,11,12,18.80
2009,05,25,11,13,18.90
2009,05,25,11,14,18.90
2009,05,25,11,15,19.00
2009,05,25,11,16,19.10
2009,05,25,11,17,19.10
2009,05,25,11,18,19.20
2009,05,25,11,19,19.30
2009,05,25,11,20,19.30
2009,05,25,11,21,19.40
2009,05,25,11,22,19.40
2009,05,25,11,23,19.40
2009,05,25,11,24,19.40
2009,05,25,11,25,19.40
2009,05,25,11,26,19.40
2009,05,25,11,27,19.50
2009,05,25,11,28,19.60
2009,05,25,11,29,19.60
2009,05,25,11,30,19.60
2009,05,25,11,31,19.70
2009,05,25,11,32,19.70
2009,05,25,11,33,19.80
2009,05,25,11,34,19.80
2009,05,25,11,35,19.90
2009,05,25,11,36,20.00
2009,05,25,11,37,20.00
2009,05,25,11,38,20.00
2009,05,25,11,39,19.90
2009,05,25,11,40,20.00
2009,05,25,11,41,20.00
2009,05,25,11,42,20.00
2009,05,25,11,43,20.00
2009,05,25,11,44,20.10
2009,05,25,11,45,20.10
2009,05,25,11,46,20.10
2009,05,25,11,47,20.10
2009,05,25,11,48,20.10
2009,05,25,11,49,20.10
2009,05,25,11,50,20.20
2009,05,25,11,51,20.20
2009,05,25,11,52,20.20
2009,05,25,11,53,20.10
2009,05,25,11,54,20.10
2009,05,25,11,55,20.10
2009,05,25,11,56,20.10
2009,05,25,11,57,20.00
2009,05,25,11,58,19.90
2009,05,25,11,59,19.90
2009,05,25,12,00,19.90
2009,05,25,12,01,19.90
2009,05,25,12,02,19.90
2009,05,25,12,03,19.90
2009,05,25,12,04,20.00
2009,05,25,12,05,20.00
2009,05,25,12,06,20.00
2009,05,25,12,07,20.00
2009,05,25,12,08,20.00
2009,05,25,12,09,20.00
2009,05,25,12,10,20.00
2009,05,25,12,11,20.00
2009,05,25,12,12,20.00
2009,05,25,12,13,20.10
2009,05,25,12,14,20.10
2009,05,25,12,15,20.10
2009,05,25,12,16,20.10
2009,05,25,12,17,20.10
2009,05,25,12,18,20.10
2009,05,25,12,19,20.10
2009,05,25,12,20,20.10
2009,05,25,12,21,20.10
2009,05,25,12,22,20.00
2009,05,25,12,23,20.00
2009,05,25,12,24,20.00
2009,05,25,12,25,20.00
2009,05,25,12,26,20.00
2009,05,25,12,27,20.00
2009,05,25,12,28,20.00
2009,05,25,12,29,20.00
2009,05,25,12,30,20.00
2009,05,25,12,31,20.00
2009,05,25,12,32,20.10
2009,05,25,12,33,20.10
2009,05,25,12,34,20.10
2009,05,25,12,35,20.10
2009,05,25,12,36,20.10
2009,05,25,12,37,20.10
2009,05,25,12,38,20.00
2009,05,25,12,39,20.00
2009,05,25,12,40,20.00
2009,05,25,12,41,20.00
2009,05,25,12,42,20.10
2009,05,25,12,43,20.10
2009,05,25,12,44,20.10
2009,05,25,12,45,20.20
2009,05,25,12,46,20.20
2009,05,25,12,47,20.20
2009,05,25,12,48,20.30
2009,05,25,12,49,20.30
2009,05,25,12,50,20.30
2009,05,25,12,51,20.30
2009,05,25,12,52,20.30
2009,05,25,12,53,20.40
2009,05,25,12,54,20.40
2009,05,25,12,55,20.50
2009,05,25,12,56,20.50
2009,05,25,12,57,20.60
2009,05,25,12,58,20.60
2009,05,25,12,59,20.60
2009,05,25,13,00,20.60
2009,05,25,13,01,20.60
2009,05,25,13,02,20.60
2009,05,25,13,03,20.60
2009,05,25,13,04,20.70
2009,05,25,13,05,20.70
2009,05,25,13,06,20.70
2009,05,25,13,07,20.80
2009,05,25,13,08,20.80
2009,05,25,13,09,20.80
2009,05,25,13,10,20.80
2009,05,25,13,11,20.80
2009,05,25,13,12,20.80
2009,05,25,13,13,20.80
2009,05,25,13,14,20.80
2009,05,25,13,15,20.80
2009,05,25,13,16,20.90
2009,05,25,13,17,20.90
2009,05,25,13,18,20.80
2009,05,25,13,19,20.80
2009,05,25,13,20,20.80
2009,05,25,13,21,20.80
2009,05,25,13,22,20.80
2009,05,25,13,23,20.90
2009,05,25,13,24,20.90
2009,05,25,13,25,20.90
2009,05,25,13,26,21.00
2009,05,25,13,27,21.10
2009,05,25,13,28,21.20
2009,05,25,13,29,21.30
2009,05,25,13,30,21.40
2009,05,25,13,31,21.50
2009,05,25,13,32,21.60
2009,05,25,13,33,21.70
2009,05,25,13,34,21.70
2009,05,25,13,35,21.70
2009,05,25,13,36,21.80
2009,05,25,13,37,21.90
2009,05,25,13,38,21.90
2009,05,25,13,39,22.00
2009,05,25,13,40,22.10
2009,05,25,13,41,22.10
2009,05,25,13,42,22.20
2009,05,25,13,43,22.20
2009,05,25,13,44,22.20
2009,05,25,13,45,22.20
2009,05,25,13,46,22.30
2009,05,25,13,47,22.30
2009,05,25,13,48,22.30
2009,05,25,13,49,22.40
2009,05,25,13,50,22.40
2009,05,25,13,51,22.50
2009,05,25,13,52,22.40
2009,05,25,13,53,22.40
2009,05,25,13,54,22.40
2009,05,25,13,55,22.30
2009,05,25,13,56,22.30
2009,05,25,13,57,22.30
2009,05,25,13,58,22.30
2009,05,25,13,59,22.30
2009,05,25,14,00,22.30
2009,05,25,14,01,22.30
2009,05,25,14,02,22.30
2009,05,25,14,03,22.30
2009,05,25,14,04,22.30
2009,05,25,14,05,22.30
2009,05,25,14,06,22.20
2009,05,25,14,07,22.20
2009,05,25,14,08,22.20
2009,05,25,14,09,22.20
2009,05,25,14,10,22.20
2009,05,25,14,11,22.20
2009,05,25,14,12,22.30
2009,05,25,14,13,22.30
2009,05,25,14,14,22.30
2009,05,25,14,15,22.30
2009,05,25,14,16,22.30
2009,05,25,14,17,22.30
2009,05,25,14,18,22.40
2009,05,25,14,19,22.40
2009,05,25,14,20,22.50
2009,05,25,14,21,22.50
2009,05,25,14,22,22.40
2009,05,25,14,23,22.40
2009,05,25,14,24,22.30
2009,05,25,14,25,22.30
2009,05,25,14,26,22.30
2009,05,25,14,27,22.30
2009,05,25,14,28,22.30
2009,05,25,14,29,22.20
2009,05,25,14,30,22.20
2009,05,25,14,31,22.20
2009,05,25,14,32,22.30
2009,05,25,14,33,22.30
2009,05,25,14,34,22.30
2009,05,25,14,35,22.30
2009,05,25,14,36,22.40
2009,05,25,14,37,22.50
2009,05,25,14,38,22.60
2009,05,25,14,39,22.70
2009,05,25,14,40,22.70
2009,05,25,14,41,22.80
2009,05,25,14,42,22.80
2009,05,25,14,43,22.90
2009,05,25,14,44,22.90
2009,05,25,14,45,23.00
2009,05,25,14,46,23.00
2009,05,25,14,47,22.90
2009,05,25,14,48,22.90
2009,05,25,14,49,22.80
2009,05,25,14,50,22.70
2009,05,25,14,51,22.70
2009,05,25,14,52,22.80
2009,05,25,14,53,22.80
2009,05,25,14,54,22.80
2009,05,25,14,55,22.90
2009,05,25,14,56,23.00
2009,05,25,14,57,23.00
2009,05,25,14,58,23.00
2009,05,25,14,59,23.10
2009,05,25,15,00,23.20
2009,05,25,15,01,23.30
2009,05,25,15,02,23.40
2009,05,25,15,03,23.40
2009,05,25,15,04,23.40
2009,05,25,15,05,23.30
2009,05,25,15,06,23.30
2009,05,25,15,07,23.20
2009,05,25,15,08,23.20
2009,05,25,15,09,23.10
2009,05,25,15,10,23.00
2009,05,25,15,11,22.80
2009,05,25,15,12,22.80
2009,05,25,15,13,22.80
2009,05,25,15,14,22.70
2009,05,25,15,15,22.60
2009,05,25,15,16,22.50
2009,05,25,15,17,22.40
2009,05,25,15,18,22.30
2009,05,25,15,19,22.30
2009,05,25,15,20,22.30
2009,05,25,15,21,22.20
2009,05,25,15,22,22.20
2009,05,25,15,23,22.10
2009,05,25,15,24,22.00
2009,05,25,15,25,22.00
2009,05,25,15,26,22.00
2009,05,25,15,27,22.00
2009,05,25,15,28,22.00
2009,05,25,15,29,21.90
2009,05,25,15,30,21.90
2009,05,25,15,31,21.90
2009,05,25,15,32,21.90
2009,05,25,15,33,21.80
2009,05,25,15,34,21.80
2009,05,25,15,35,21.80
2009,05,25,15,36,21.70
2009,05,25,15,37,21.60
2009,05,25,15,38,21.50
2009,05,25,15,39,21.50
2009,05,25,15,40,21.50
2009,05,25,15,41,21.40
2009,05,25,15,42,21.40
2009,05,25,15,43,21.40
2009,05,25,15,44,21.50
2009,05,25,15,45,21.60
2009,05,25,15,46,21.70
2009,05,25,15,47,21.70
2009,05,25,15,48,21.70
2009,05,25,15,49,21.60
2009,05,25,15,50,21.60
2009,05,25,15,51,21.60
2009,05,25,15,52,21.60
2009,05,25,15,53,21.60
2009,05,25,15,54,21.50
2009,05,25,15,55,21.50
2009,05,25,15,56,21.40
2009,05,25,15,57,21.40
2009,05,25,15,58,21.50
2009,05,25,15,59,21.40
2009,05,25,16,00,21.40
2009,05,25,16,01,21.40
2009,05,25,16,02,21.40
2009,05,25,16,03,21.40
2009,05,25,16,04,21.40
2009,05,25,16,05,21.30
2009,05,25,16,06,21.30
2009,05,25,16,07,21.20
2009,05,25,16,08,21.20
2009,05,25,16,09,21.10
2009,05,25,16,10,21.10
2009,05,25,16,11,21.10
2009,05,25,16,12,21.00
2009,05,25,16,13,21.00
2009,05,25,16,14,21.00
2009,05,25,16,15,21.00
2009,05,25,16,16,20.90
2009,05,25,16,17,20.90
2009,05,25,16,18,20.90
2009,05,25,16,19,20.90
2009,05,25,16,20,21.00
2009,05,25,16,21,21.10
2009,05,25,16,22,21.10
2009,05,25,16,23,21.10
2009,05,25,16,24,21.10
2009,05,25,16,25,21.20
2009,05,25,16,26,21.20
2009,05,25,16,27,21.30
2009,05,25,16,28,21.30
2009,05,25,16,29,21.30
2009,05,25,16,30,21.30
2009,05,25,16,31,21.30
2009,05,25,16,32,21.30
2009,05,25,16,33,21.20
2009,05,25,16,34,21.20
2009,05,25,16,35,21.20
2009,05,25,16,36,21.20
2009,05,25,16,37,21.30
2009,05,25,16,38,21.30
2009,05,25,16,39,21.30
2009,05,25,16,40,21.40
2009,05,25,16,41,21.40
2009,05,25,16,42,21.50
2009,05,25,16,43,21.60
2009,05,25,16,44,21.70
2009,05,25,16,45,21.80
2009,05,25,16,46,21.80
2009,05,25,16,47,21.80
2009,05,25,16,48,21.80
2009,05,25,16,49,21.80
2009,05,25,16,50,21.90
2009,05,25,16,51,21.90
2009,05,25,16,52,21.90
2009,05,25,16,53,21.90
2009,05,25,16,54,21.90
2009,05,25,16,55,21.90
2009,05,25,16,56,21.80
2009,05,25,16,57,21.70
2009,05,25,16,58,21.60
2009,05,25,16,59,21.50
2009,05,25,17,00,21.40
2009,05,25,17,01,21.20
2009,05,25,17,02,21.10
2009,05,25,17,03,21.10
2009,05,25,17,04,21.00
2009,05,25,17,05,20.90
2009,05,25,17,06,20.90
2009,05,25,17,07,20.90
2009,05,25,17,08,20.80
2009,05,25,17,09,20.80
2009,05,25,17,10,20.80
2009,05,25,17,11,20.70
2009,05,25,17,12,20.80
2009,05,25,17,13,20.80
2009,05,25,17,14,20.80
2009,05,25,17,15,20.80
2009,05,25,17,16,20.70
2009,05,25,17,17,20.70
2009,05,25,17,18,20.70
2009,05,25,17,19,20.70
2009,05,25,17,20,20.70
2009,05,25,17,21,20.70
2009,05,25,17,22,20.70
2009,05,25,17,23,20.70
2009,05,25,17,24,20.70
2009,05,25,17,25,20.70
2009,05,25,17,26,20.70
2009,05,25,17,27,20.80
2009,05,25,17,28,20.80
2009,05,25,17,29,20.80
2009,05,25,17,30,20.80
2009,05,25,17,31,20.80
2009,05,25,17,32,20.80
2009,05,25,17,33,20.70
2009,05,25,17,34,20.70
2009,05,25,17,35,20.60
2009,05,25,17,36,20.50
2009,05,25,17,37,20.40